Location: Obersdorf
(47.4079°N, 10.2781°E)
Time: 19:50:00
(UTC+01:00)

CAS-4B - Visible Passes

Search period start: 06 December 2021 00:00
Search period end: 16 December 2021 00:00
Orbit: 529 x 539 km, 43.0° (Epoch: 06 December)

Date Brightness Start Highest point End Pass type
(mag) Time Alt. Az. Time Alt. Az. Time Alt. Az.
07 Dec ? 19:03:35 10° SSW 19:04:45 15° S 19:04:45 15° S visible
08 Dec ? 18:52:09 10° SSW 18:54:22 20° S 18:54:22 20° S visible
09 Dec ? 18:40:48 10° SSW 18:43:56 25° SSE 18:43:56 25° SSE visible
10 Dec ? 18:29:29 10° SW 18:33:02 28° SSE 18:33:28 28° SSE visible
10 Dec ? 20:08:46 10° WSW 20:08:46 10° WSW 20:08:46 10° WSW visible
11 Dec ? 18:18:13 10° SW 18:21:53 31° SSE 18:22:58 27° SE visible
11 Dec ? 19:57:38 10° WSW 19:58:16 14° WSW 19:58:16 14° WSW visible
12 Dec ? 18:06:59 10° SW 18:10:44 35° SSE 18:12:26 24° ESE visible
12 Dec ? 19:46:32 10° WSW 19:47:44 18° WSW 19:47:44 18° WSW visible
13 Dec ? 17:55:47 10° SW 17:59:36 38° SSE 18:01:54 20° ESE visible
13 Dec ? 19:35:25 10° WSW 19:37:12 23° WSW 19:37:12 23° WSW visible
14 Dec ? 17:44:35 10° WSW 17:48:28 40° S 17:51:23 16° ESE visible
14 Dec ? 19:24:19 10° W 19:26:41 29° WSW 19:26:41 29° WSW visible
15 Dec ? 17:33:25 10° WSW 17:37:19 43° S 17:40:53 12° ESE visible
15 Dec ? 19:13:13 10° W 19:16:11 35° SW 19:16:11 35° SW visible
